Weather in Kalinovka

Russia / Republic of Dagestan     43°58′01″N   46°34′12″E
temp.,
°C
wind,
m/s
gust,
m/s
humid.,
%
clouds,
%
prec.,
mm/h
press.,
hPa
HPBL,
m
5 march, fri
fri500:00+2sse33770 0.0 102257
03:00+1sse23830 0.0 102237
06:00+1se22850 0.0 102022
09:00+5ese23680 0.0 1020298
12:00+10se33450 0.0 1019862
15:00+12se11370 0.0 10181041
18:00+8se22550 0.0 101936
21:00+5sse34801 0.0 102090
6 march, sat
sat600:00+4sse34810 0.0 101964
03:00+3se33770 0.0 101936
06:00+2sse33790 0.0 101935
09:00+7sse356321 0.0 1018253
12:00+15se46350 0.0 1016529
15:00+16se68310 0.0 1014525
18:00+10se611440 0.0 1013225
21:00+7se386318 0.0 1013181
7 march, sun
sun700:00+6n446498 0.0 101270
03:00+8nw8147399 0.0 1015681
06:00+4nw91468100 0.0 10201398
09:00+3nw101257100 0.0 10241337
12:00+4nw8113890 0.0 10241327
15:00+5nw683557 0.0 10241539
18:00+3nnw23400 0.0 102453
21:00+1se11470 0.0 102422
8 march, mon
mon800:000sse33530 0.0 102345
03:00−1s22580 0.0 102322
06:00−1ssw125522 0.0 102321
09:00+3sse114011 0.0 1022358
12:00+6e23320 0.0 10201373
15:00+8ese443817 0.0 10181744
18:00+5se475047 0.0 1018316
21:00+2se247047 0.0 1019125
9 march, tue
tue900:00+1se237947 0.0 101938
03:00+1sse228538 0.0 101821
06:000sse228648 0.0 101822
09:00+5se346152 0.0 1018412
12:00+8ese34383 0.0 10161279
15:00+9ese55352 0.0 10151372
18:00+5se47570 0.0 1015267
21:00+2se25786 0.0 1016141